Year,Month,Day,Hour,Minute,Value (Times are PST for temperature in C)
2007,09,13,00,00,11.10
2007,09,13,00,01,11.00
2007,09,13,00,02,11.00
2007,09,13,00,03,11.00
2007,09,13,00,04,11.00
2007,09,13,00,05,11.00
2007,09,13,00,06,10.90
2007,09,13,00,07,10.90
2007,09,13,00,08,10.90
2007,09,13,00,09,10.90
2007,09,13,00,10,10.90
2007,09,13,00,11,10.90
2007,09,13,00,12,10.90
2007,09,13,00,13,10.90
2007,09,13,00,14,10.90
2007,09,13,00,15,10.90
2007,09,13,00,16,10.90
2007,09,13,00,17,10.80
2007,09,13,00,18,10.80
2007,09,13,00,19,10.80
2007,09,13,00,20,10.80
2007,09,13,00,21,10.80
2007,09,13,00,22,10.80
2007,09,13,00,23,10.80
2007,09,13,00,24,10.80
2007,09,13,00,25,10.80
2007,09,13,00,26,10.80
2007,09,13,00,27,10.80
2007,09,13,00,28,10.80
2007,09,13,00,29,10.80
2007,09,13,00,30,10.80
2007,09,13,00,31,10.80
2007,09,13,00,32,10.80
2007,09,13,00,33,10.80
2007,09,13,00,34,10.80
2007,09,13,00,35,10.80
2007,09,13,00,36,10.80
2007,09,13,00,37,10.80
2007,09,13,00,38,10.80
2007,09,13,00,39,10.80
2007,09,13,00,40,10.80
2007,09,13,00,41,10.80
2007,09,13,00,42,10.80
2007,09,13,00,43,10.80
2007,09,13,00,44,10.90
2007,09,13,00,45,10.90
2007,09,13,00,46,10.90
2007,09,13,00,47,10.90
2007,09,13,00,48,10.90
2007,09,13,00,49,10.90
2007,09,13,00,50,10.90
2007,09,13,00,51,10.90
2007,09,13,00,52,10.90
2007,09,13,00,53,10.80
2007,09,13,00,54,10.80
2007,09,13,00,55,10.80
2007,09,13,00,56,10.80
2007,09,13,00,57,10.80
2007,09,13,00,58,10.80
2007,09,13,00,59,10.80
2007,09,13,01,00,10.80
2007,09,13,01,01,10.80
2007,09,13,01,02,10.80
2007,09,13,01,03,10.80
2007,09,13,01,04,10.80
2007,09,13,01,05,10.80
2007,09,13,01,06,10.80
2007,09,13,01,07,10.80
2007,09,13,01,08,10.70
2007,09,13,01,09,10.70
2007,09,13,01,10,10.70
2007,09,13,01,11,10.70
2007,09,13,01,12,10.70
2007,09,13,01,13,10.70
2007,09,13,01,14,10.70
2007,09,13,01,15,10.70
2007,09,13,01,16,10.70
2007,09,13,01,17,10.70
2007,09,13,01,18,10.70
2007,09,13,01,19,10.70
2007,09,13,01,20,10.70
2007,09,13,01,21,10.70
2007,09,13,01,22,10.70
2007,09,13,01,23,10.70
2007,09,13,01,24,10.70
2007,09,13,01,25,10.70
2007,09,13,01,26,10.70
2007,09,13,01,27,10.70
2007,09,13,01,28,10.70
2007,09,13,01,29,10.70
2007,09,13,01,30,10.70
2007,09,13,01,31,10.70
2007,09,13,01,32,10.70
2007,09,13,01,33,10.70
2007,09,13,01,34,10.60
2007,09,13,01,35,10.60
2007,09,13,01,36,10.60
2007,09,13,01,37,10.60
2007,09,13,01,38,10.60
2007,09,13,01,39,10.60
2007,09,13,01,40,10.50
2007,09,13,01,41,10.50
2007,09,13,01,42,10.50
2007,09,13,01,43,10.50
2007,09,13,01,44,10.50
2007,09,13,01,45,10.40
2007,09,13,01,46,10.40
2007,09,13,01,47,10.40
2007,09,13,01,48,10.40
2007,09,13,01,49,10.40
2007,09,13,01,50,10.40
2007,09,13,01,51,10.40
2007,09,13,01,52,10.40
2007,09,13,01,53,10.40
2007,09,13,01,54,10.40
2007,09,13,01,55,10.40
2007,09,13,01,56,10.40
2007,09,13,01,57,10.30
2007,09,13,01,58,10.30
2007,09,13,01,59,10.30
2007,09,13,02,00,10.30
2007,09,13,02,01,10.30
2007,09,13,02,02,10.30
2007,09,13,02,03,10.30
2007,09,13,02,04,10.30
2007,09,13,02,05,10.30
2007,09,13,02,06,10.30
2007,09,13,02,07,10.30
2007,09,13,02,08,10.30
2007,09,13,02,09,10.30
2007,09,13,02,10,10.30
2007,09,13,02,11,10.30
2007,09,13,02,12,10.30
2007,09,13,02,13,10.30
2007,09,13,02,14,10.30
2007,09,13,02,15,10.30
2007,09,13,02,16,10.30
2007,09,13,02,17,10.30
2007,09,13,02,18,10.30
2007,09,13,02,19,10.30
2007,09,13,02,20,10.30
2007,09,13,02,21,10.30
2007,09,13,02,22,10.30
2007,09,13,02,23,10.30
2007,09,13,02,24,10.30
2007,09,13,02,25,10.30
2007,09,13,02,26,10.30
2007,09,13,02,27,10.30
2007,09,13,02,28,10.30
2007,09,13,02,29,10.30
2007,09,13,02,30,10.30
2007,09,13,02,31,10.30
2007,09,13,02,32,10.30
2007,09,13,02,33,10.20
2007,09,13,02,34,10.20
2007,09,13,02,35,10.20
2007,09,13,02,36,10.20
2007,09,13,02,37,10.20
2007,09,13,02,38,10.20
2007,09,13,02,39,10.20
2007,09,13,02,40,10.20
2007,09,13,02,41,10.20
2007,09,13,02,42,10.20
2007,09,13,02,43,10.20
2007,09,13,02,44,10.20
2007,09,13,02,45,10.10
2007,09,13,02,46,10.10
2007,09,13,02,47,10.10
2007,09,13,02,48,10.10
2007,09,13,02,49,10.10
2007,09,13,02,50,10.10
2007,09,13,02,51,10.10
2007,09,13,02,52,10.10
2007,09,13,02,53,10.10
2007,09,13,02,54,10.00
2007,09,13,02,55,10.00
2007,09,13,02,56,10.00
2007,09,13,02,57,10.00
2007,09,13,02,58,10.00
2007,09,13,02,59,9.90
2007,09,13,03,00,9.90
2007,09,13,03,01,9.90
2007,09,13,03,02,9.90
2007,09,13,03,03,9.90
2007,09,13,03,04,10.00
2007,09,13,03,05,10.00
2007,09,13,03,06,10.00
2007,09,13,03,07,10.10
2007,09,13,03,08,10.10
2007,09,13,03,09,10.10
2007,09,13,03,10,10.10
2007,09,13,03,11,10.10
2007,09,13,03,12,10.10
2007,09,13,03,13,10.10
2007,09,13,03,14,10.10
2007,09,13,03,15,10.10
2007,09,13,03,16,10.10
2007,09,13,03,17,10.10
2007,09,13,03,18,10.10
2007,09,13,03,19,10.00
2007,09,13,03,20,10.00
2007,09,13,03,21,10.00
2007,09,13,03,22,10.00
2007,09,13,03,23,10.00
2007,09,13,03,24,10.00
2007,09,13,03,25,10.00
2007,09,13,03,26,9.90
2007,09,13,03,27,9.90
2007,09,13,03,28,9.90
2007,09,13,03,29,9.90
2007,09,13,03,30,9.90
2007,09,13,03,31,9.90
2007,09,13,03,32,9.90
2007,09,13,03,33,9.90
2007,09,13,03,34,9.90
2007,09,13,03,35,9.80
2007,09,13,03,36,9.80
2007,09,13,03,37,9.80
2007,09,13,03,38,9.80
2007,09,13,03,39,9.80
2007,09,13,03,40,9.80
2007,09,13,03,41,9.80
2007,09,13,03,42,9.80
2007,09,13,03,43,9.80
2007,09,13,03,44,9.80
2007,09,13,03,45,9.70
2007,09,13,03,46,9.70
2007,09,13,03,47,9.70
2007,09,13,03,48,9.70
2007,09,13,03,49,9.70
2007,09,13,03,50,9.70
2007,09,13,03,51,9.70
2007,09,13,03,52,9.70
2007,09,13,03,53,9.70
2007,09,13,03,54,9.60
2007,09,13,03,55,9.60
2007,09,13,03,56,9.60
2007,09,13,03,57,9.60
2007,09,13,03,58,9.60
2007,09,13,03,59,9.60
2007,09,13,04,00,9.60
2007,09,13,04,01,9.60
2007,09,13,04,02,9.50
2007,09,13,04,03,9.50
2007,09,13,04,04,9.40
2007,09,13,04,05,9.40
2007,09,13,04,06,9.40
2007,09,13,04,07,9.40
2007,09,13,04,08,9.40
2007,09,13,04,09,9.40
2007,09,13,04,10,9.40
2007,09,13,04,11,9.40
2007,09,13,04,12,9.30
2007,09,13,04,13,9.30
2007,09,13,04,14,9.30
2007,09,13,04,15,9.30
2007,09,13,04,16,9.30
2007,09,13,04,17,9.30
2007,09,13,04,18,9.30
2007,09,13,04,19,9.30
2007,09,13,04,20,9.30
2007,09,13,04,21,9.30
2007,09,13,04,22,9.30
2007,09,13,04,23,9.30
2007,09,13,04,24,9.30
2007,09,13,04,25,9.20
2007,09,13,04,26,9.20
2007,09,13,04,27,9.20
2007,09,13,04,28,9.20
2007,09,13,04,29,9.20
2007,09,13,04,30,9.20
2007,09,13,04,31,9.20
2007,09,13,04,32,9.20
2007,09,13,04,33,9.20
2007,09,13,04,34,9.20
2007,09,13,04,35,9.20
2007,09,13,04,36,9.20
2007,09,13,04,37,9.20
2007,09,13,04,38,9.20
2007,09,13,04,39,9.20
2007,09,13,04,40,9.20
2007,09,13,04,41,9.20
2007,09,13,04,42,9.20
2007,09,13,04,43,9.10
2007,09,13,04,44,9.10
2007,09,13,04,45,9.10
2007,09,13,04,46,9.10
2007,09,13,04,47,9.10
2007,09,13,04,48,9.10
2007,09,13,04,49,9.10
2007,09,13,04,50,9.10
2007,09,13,04,51,9.10
2007,09,13,04,52,9.10
2007,09,13,04,53,9.10
2007,09,13,04,54,9.10
2007,09,13,04,55,9.00
2007,09,13,04,56,9.00
2007,09,13,04,57,9.00
2007,09,13,04,58,9.00
2007,09,13,04,59,9.00
2007,09,13,05,00,9.00
2007,09,13,05,01,9.00
2007,09,13,05,02,8.90
2007,09,13,05,03,8.90
2007,09,13,05,04,8.90
2007,09,13,05,05,8.90
2007,09,13,05,06,8.90
2007,09,13,05,07,8.90
2007,09,13,05,08,8.90
2007,09,13,05,09,8.90
2007,09,13,05,10,8.90
2007,09,13,05,11,8.90
2007,09,13,05,12,8.90
2007,09,13,05,13,8.80
2007,09,13,05,14,8.80
2007,09,13,05,15,8.80
2007,09,13,05,16,8.80
2007,09,13,05,17,8.80
2007,09,13,05,18,8.80
2007,09,13,05,19,8.80
2007,09,13,05,20,8.80
2007,09,13,05,21,8.80
2007,09,13,05,22,8.80
2007,09,13,05,23,8.80
2007,09,13,05,24,8.80
2007,09,13,05,25,8.80
2007,09,13,05,26,8.80
2007,09,13,05,27,8.80
2007,09,13,05,28,8.80
2007,09,13,05,29,8.80
2007,09,13,05,30,8.80
2007,09,13,05,31,8.80
2007,09,13,05,32,8.80
2007,09,13,05,33,8.80
2007,09,13,05,34,8.80
2007,09,13,05,35,8.80
2007,09,13,05,36,8.80
2007,09,13,05,37,8.70
2007,09,13,05,38,8.70
2007,09,13,05,39,8.70
2007,09,13,05,40,8.70
2007,09,13,05,41,8.70
2007,09,13,05,42,8.70
2007,09,13,05,43,8.70
2007,09,13,05,44,8.70
2007,09,13,05,45,8.70
2007,09,13,05,46,8.70
2007,09,13,05,47,8.70
2007,09,13,05,48,8.70
2007,09,13,05,49,8.70
2007,09,13,05,50,8.70
2007,09,13,05,51,8.70
2007,09,13,05,52,8.70
2007,09,13,05,53,8.70
2007,09,13,05,54,8.70
2007,09,13,05,55,8.70
2007,09,13,05,56,8.70
2007,09,13,05,57,8.70
2007,09,13,05,58,8.70
2007,09,13,05,59,8.70
2007,09,13,06,00,8.70
2007,09,13,06,01,8.60
2007,09,13,06,02,8.60
2007,09,13,06,03,8.60
2007,09,13,06,04,8.60
2007,09,13,06,05,8.60
2007,09,13,06,06,8.60
2007,09,13,06,07,8.60
2007,09,13,06,08,8.60
2007,09,13,06,09,8.50
2007,09,13,06,10,8.50
2007,09,13,06,11,8.50
2007,09,13,06,12,8.50
2007,09,13,06,13,8.50
2007,09,13,06,14,8.50
2007,09,13,06,15,8.50
2007,09,13,06,16,8.50
2007,09,13,06,17,8.40
2007,09,13,06,18,8.40
2007,09,13,06,19,8.40
2007,09,13,06,20,8.40
2007,09,13,06,21,8.40
2007,09,13,06,22,8.40
2007,09,13,06,23,8.40
2007,09,13,06,24,8.40
2007,09,13,06,25,8.40
2007,09,13,06,26,8.30
2007,09,13,06,27,8.30
2007,09,13,06,28,8.30
2007,09,13,06,29,8.30
2007,09,13,06,30,8.30
2007,09,13,06,31,8.30
2007,09,13,06,32,8.30
2007,09,13,06,33,8.30
2007,09,13,06,34,8.30
2007,09,13,06,35,8.30
2007,09,13,06,36,8.30
2007,09,13,06,37,8.30
2007,09,13,06,38,8.30
2007,09,13,06,39,8.30
2007,09,13,06,40,8.30
2007,09,13,06,41,8.30
2007,09,13,06,42,8.30
2007,09,13,06,43,8.30
2007,09,13,06,44,8.30
2007,09,13,06,45,8.30
2007,09,13,06,46,8.30
2007,09,13,06,47,8.30
2007,09,13,06,48,8.30
2007,09,13,06,49,8.30
2007,09,13,06,50,8.30
2007,09,13,06,51,8.30
2007,09,13,06,52,8.30
2007,09,13,06,53,8.30
2007,09,13,06,54,8.30
2007,09,13,06,55,8.30
2007,09,13,06,56,8.30
2007,09,13,06,57,8.30
2007,09,13,06,58,8.30
2007,09,13,06,59,8.30
2007,09,13,07,00,8.30
2007,09,13,07,01,8.30
2007,09,13,07,02,8.30
2007,09,13,07,03,8.30
2007,09,13,07,04,8.30
2007,09,13,07,05,8.40
2007,09,13,07,06,8.40
2007,09,13,07,07,8.40
2007,09,13,07,08,8.50
2007,09,13,07,09,8.50
2007,09,13,07,10,8.50
2007,09,13,07,11,8.50
2007,09,13,07,12,8.50
2007,09,13,07,13,8.60
2007,09,13,07,14,8.60
2007,09,13,07,15,8.60
2007,09,13,07,16,8.60
2007,09,13,07,17,8.60
2007,09,13,07,18,8.60
2007,09,13,07,19,8.60
2007,09,13,07,20,8.60
2007,09,13,07,21,8.60
2007,09,13,07,22,8.60
2007,09,13,07,23,8.60
2007,09,13,07,24,8.60
2007,09,13,07,25,8.60
2007,09,13,07,26,8.60
2007,09,13,07,27,8.70
2007,09,13,07,28,8.70
2007,09,13,07,29,8.80
2007,09,13,07,30,8.80
2007,09,13,07,31,8.80
2007,09,13,07,32,8.90
2007,09,13,07,33,8.90
2007,09,13,07,34,8.90
2007,09,13,07,35,8.90
2007,09,13,07,36,8.90
2007,09,13,07,37,8.90
2007,09,13,07,38,8.90
2007,09,13,07,39,8.90
2007,09,13,07,40,8.90
2007,09,13,07,41,8.90
2007,09,13,07,42,8.90
2007,09,13,07,43,8.90
2007,09,13,07,44,8.90
2007,09,13,07,45,8.90
2007,09,13,07,46,8.90
2007,09,13,07,47,8.90
2007,09,13,07,48,8.90
2007,09,13,07,49,9.00
2007,09,13,07,50,9.00
2007,09,13,07,51,9.00
2007,09,13,07,52,9.00
2007,09,13,07,53,9.10
2007,09,13,07,54,9.10
2007,09,13,07,55,9.10
2007,09,13,07,56,9.10
2007,09,13,07,57,9.20
2007,09,13,07,58,9.20
2007,09,13,07,59,9.30
2007,09,13,08,00,9.30
2007,09,13,08,01,9.40
2007,09,13,08,02,9.50
2007,09,13,08,03,9.50
2007,09,13,08,04,9.60
2007,09,13,08,05,9.60
2007,09,13,08,06,9.70
2007,09,13,08,07,9.80
2007,09,13,08,08,9.90
2007,09,13,08,09,10.00
2007,09,13,08,10,10.00
2007,09,13,08,11,10.10
2007,09,13,08,12,10.10
2007,09,13,08,13,10.20
2007,09,13,08,14,10.20
2007,09,13,08,15,10.20
2007,09,13,08,16,10.20
2007,09,13,08,17,10.30
2007,09,13,08,18,10.30
2007,09,13,08,19,10.40
2007,09,13,08,20,10.50
2007,09,13,08,21,10.50
2007,09,13,08,22,10.60
2007,09,13,08,23,10.70
2007,09,13,08,24,10.80
2007,09,13,08,25,10.80
2007,09,13,08,26,10.80
2007,09,13,08,27,10.90
2007,09,13,08,28,11.00
2007,09,13,08,29,11.00
2007,09,13,08,30,11.10
2007,09,13,08,31,11.20
2007,09,13,08,32,11.40
2007,09,13,08,33,11.50
2007,09,13,08,34,11.60
2007,09,13,08,35,11.60
2007,09,13,08,36,11.70
2007,09,13,08,37,11.70
2007,09,13,08,38,11.90
2007,09,13,08,39,12.00
2007,09,13,08,40,12.10
2007,09,13,08,41,12.20
2007,09,13,08,42,12.30
2007,09,13,08,43,12.40
2007,09,13,08,44,12.50
2007,09,13,08,45,12.60
2007,09,13,08,46,12.70
2007,09,13,08,47,12.80
2007,09,13,08,48,12.90
2007,09,13,08,49,12.90
2007,09,13,08,50,13.00
2007,09,13,08,51,13.00
2007,09,13,08,52,13.10
2007,09,13,08,53,13.10
2007,09,13,08,54,13.10
2007,09,13,08,55,13.20
2007,09,13,08,56,13.30
2007,09,13,08,57,13.30
2007,09,13,08,58,13.40
2007,09,13,08,59,13.50
2007,09,13,09,00,13.50
2007,09,13,09,01,13.50
2007,09,13,09,02,13.60
2007,09,13,09,03,13.60
2007,09,13,09,04,13.60
2007,09,13,09,05,13.60
2007,09,13,09,06,13.70
2007,09,13,09,07,13.70
2007,09,13,09,08,13.80
2007,09,13,09,09,13.80
2007,09,13,09,10,13.90
2007,09,13,09,11,13.90
2007,09,13,09,12,14.00
2007,09,13,09,13,14.00
2007,09,13,09,14,14.00
2007,09,13,09,15,14.00
2007,09,13,09,16,14.00
2007,09,13,09,17,14.00
2007,09,13,09,18,14.10
2007,09,13,09,19,14.10
2007,09,13,09,20,14.10
2007,09,13,09,21,14.10
2007,09,13,09,22,14.20
2007,09,13,09,23,14.20
2007,09,13,09,24,14.20
2007,09,13,09,25,14.20
2007,09,13,09,26,14.30
2007,09,13,09,27,14.30
2007,09,13,09,28,14.30
2007,09,13,09,29,14.40
2007,09,13,09,30,14.40
2007,09,13,09,31,14.40
2007,09,13,09,32,14.50
2007,09,13,09,33,14.50
2007,09,13,09,34,14.50
2007,09,13,09,35,14.60
2007,09,13,09,36,14.60
2007,09,13,09,37,14.60
2007,09,13,09,38,14.60
2007,09,13,09,39,14.60
2007,09,13,09,40,14.70
2007,09,13,09,41,14.70
2007,09,13,09,42,14.80
2007,09,13,09,43,14.80
2007,09,13,09,44,14.90
2007,09,13,09,45,15.00
2007,09,13,09,46,15.00
2007,09,13,09,47,15.00
2007,09,13,09,48,15.00
2007,09,13,09,49,15.10
2007,09,13,09,50,15.20
2007,09,13,09,51,15.20
2007,09,13,09,52,15.30
2007,09,13,09,53,15.30
2007,09,13,09,54,15.40
2007,09,13,09,55,15.40
2007,09,13,09,56,15.40
2007,09,13,09,57,15.30
2007,09,13,09,58,15.30
2007,09,13,09,59,15.20
2007,09,13,10,00,15.20
2007,09,13,10,01,15.30
2007,09,13,10,02,15.30
2007,09,13,10,03,15.30
2007,09,13,10,04,15.40
2007,09,13,10,05,15.50
2007,09,13,10,06,15.50
2007,09,13,10,07,15.60
2007,09,13,10,08,15.70
2007,09,13,10,09,15.70
2007,09,13,10,10,15.80
2007,09,13,10,11,15.80
2007,09,13,10,12,15.80
2007,09,13,10,13,15.80
2007,09,13,10,14,15.80
2007,09,13,10,15,15.90
2007,09,13,10,16,16.00
2007,09,13,10,17,16.00
2007,09,13,10,18,16.00
2007,09,13,10,19,16.00
2007,09,13,10,20,16.00
2007,09,13,10,21,16.10
2007,09,13,10,22,16.10
2007,09,13,10,23,16.10
2007,09,13,10,24,16.20
2007,09,13,10,25,16.30
2007,09,13,10,26,16.30
2007,09,13,10,27,16.40
2007,09,13,10,28,16.50
2007,09,13,10,29,16.50
2007,09,13,10,30,16.60
2007,09,13,10,31,16.60
2007,09,13,10,32,16.60
2007,09,13,10,33,16.70
2007,09,13,10,34,16.70
2007,09,13,10,35,16.70
2007,09,13,10,36,16.70
2007,09,13,10,37,16.60
2007,09,13,10,38,16.50
2007,09,13,10,39,16.40
2007,09,13,10,40,16.40
2007,09,13,10,41,16.50
2007,09,13,10,42,16.40
2007,09,13,10,43,16.40
2007,09,13,10,44,16.40
2007,09,13,10,45,16.40
2007,09,13,10,46,16.40
2007,09,13,10,47,16.50
2007,09,13,10,48,16.50
2007,09,13,10,49,16.60
2007,09,13,10,50,16.60
2007,09,13,10,51,16.60
2007,09,13,10,52,16.70
2007,09,13,10,53,16.70
2007,09,13,10,54,16.80
2007,09,13,10,55,16.80
2007,09,13,10,56,16.90
2007,09,13,10,57,16.90
2007,09,13,10,58,17.00
2007,09,13,10,59,17.00
2007,09,13,11,00,16.90
2007,09,13,11,01,16.80
2007,09,13,11,02,16.70
2007,09,13,11,03,16.60
2007,09,13,11,04,16.60
2007,09,13,11,05,16.60
2007,09,13,11,06,16.70
2007,09,13,11,07,16.80
2007,09,13,11,08,16.80
2007,09,13,11,09,16.90
2007,09,13,11,10,16.90
2007,09,13,11,11,17.00
2007,09,13,11,12,17.10
2007,09,13,11,13,17.10
2007,09,13,11,14,17.20
2007,09,13,11,15,17.20
2007,09,13,11,16,17.30
2007,09,13,11,17,17.30
2007,09,13,11,18,17.40
2007,09,13,11,19,17.40
2007,09,13,11,20,17.30
2007,09,13,11,21,17.20
2007,09,13,11,22,17.20
2007,09,13,11,23,17.20
2007,09,13,11,24,17.20
2007,09,13,11,25,17.20
2007,09,13,11,26,17.20
2007,09,13,11,27,17.30
2007,09,13,11,28,17.30
2007,09,13,11,29,17.40
2007,09,13,11,30,17.40
2007,09,13,11,31,17.40
2007,09,13,11,32,17.40
2007,09,13,11,33,17.30
2007,09,13,11,34,17.40
2007,09,13,11,35,17.40
2007,09,13,11,36,17.50
2007,09,13,11,37,17.50
2007,09,13,11,38,17.60
2007,09,13,11,39,17.60
2007,09,13,11,40,17.60
2007,09,13,11,41,17.50
2007,09,13,11,42,17.40
2007,09,13,11,43,17.30
2007,09,13,11,44,17.30
2007,09,13,11,45,17.30
2007,09,13,11,46,17.30
2007,09,13,11,47,17.30
2007,09,13,11,48,17.40
2007,09,13,11,49,17.40
2007,09,13,11,50,17.50
2007,09,13,11,51,17.60
2007,09,13,11,52,17.50
2007,09,13,11,53,17.50
2007,09,13,11,54,17.60
2007,09,13,11,55,17.60
2007,09,13,11,56,17.50
2007,09,13,11,57,17.50
2007,09,13,11,58,17.40
2007,09,13,11,59,17.40
2007,09,13,12,00,17.30
2007,09,13,12,01,17.30
2007,09,13,12,02,17.30
2007,09,13,12,03,17.40
2007,09,13,12,04,17.30
2007,09,13,12,05,17.20
2007,09,13,12,06,17.20
2007,09,13,12,07,17.30
2007,09,13,12,08,17.20
2007,09,13,12,09,17.20
2007,09,13,12,10,17.20
2007,09,13,12,11,17.30
2007,09,13,12,12,17.30
2007,09,13,12,13,17.40
2007,09,13,12,14,17.50
2007,09,13,12,15,17.60
2007,09,13,12,16,17.70
2007,09,13,12,17,17.70
2007,09,13,12,18,17.80
2007,09,13,12,19,17.80
2007,09,13,12,20,17.80
2007,09,13,12,21,17.80
2007,09,13,12,22,17.70
2007,09,13,12,23,17.80
2007,09,13,12,24,17.90
2007,09,13,12,25,17.90
2007,09,13,12,26,17.90
2007,09,13,12,27,17.90
2007,09,13,12,28,17.80
2007,09,13,12,29,17.90
2007,09,13,12,30,17.90
2007,09,13,12,31,17.90
2007,09,13,12,32,17.90
2007,09,13,12,33,17.90
2007,09,13,12,34,17.90
2007,09,13,12,35,18.00
2007,09,13,12,36,18.00
2007,09,13,12,37,18.00
2007,09,13,12,38,18.00
2007,09,13,12,39,18.00
2007,09,13,12,40,17.90
2007,09,13,12,41,17.90
2007,09,13,12,42,17.80
2007,09,13,12,43,17.80
2007,09,13,12,44,17.70
2007,09,13,12,45,17.60
2007,09,13,12,46,17.60
2007,09,13,12,47,17.60
2007,09,13,12,48,17.60
2007,09,13,12,49,17.70
2007,09,13,12,50,17.70
2007,09,13,12,51,17.70
2007,09,13,12,52,17.70
2007,09,13,12,53,17.70
2007,09,13,12,54,17.60
2007,09,13,12,55,17.70
2007,09,13,12,56,17.70
2007,09,13,12,57,17.80
2007,09,13,12,58,17.80
2007,09,13,12,59,17.80
2007,09,13,13,00,17.90
2007,09,13,13,01,18.00
2007,09,13,13,02,18.00
2007,09,13,13,03,18.10
2007,09,13,13,04,18.10
2007,09,13,13,05,18.20
2007,09,13,13,06,18.30
2007,09,13,13,07,18.30
2007,09,13,13,08,18.30
2007,09,13,13,09,18.40
2007,09,13,13,10,18.40
2007,09,13,13,11,18.50
2007,09,13,13,12,18.60
2007,09,13,13,13,18.60
2007,09,13,13,14,18.60
2007,09,13,13,15,18.60
2007,09,13,13,16,18.60
2007,09,13,13,17,18.60
2007,09,13,13,18,18.60
2007,09,13,13,19,18.60
2007,09,13,13,20,18.60
2007,09,13,13,21,18.60
2007,09,13,13,22,18.60
2007,09,13,13,23,18.70
2007,09,13,13,24,18.70
2007,09,13,13,25,18.70
2007,09,13,13,26,18.70
2007,09,13,13,27,18.70
2007,09,13,13,28,18.70
2007,09,13,13,29,18.70
2007,09,13,13,30,18.80
2007,09,13,13,31,18.80
2007,09,13,13,32,18.80
2007,09,13,13,33,18.80
2007,09,13,13,34,18.90
2007,09,13,13,35,19.00
2007,09,13,13,36,19.10
2007,09,13,13,37,19.20
2007,09,13,13,38,19.10
2007,09,13,13,39,19.10
2007,09,13,13,40,19.20
2007,09,13,13,41,19.20
2007,09,13,13,42,19.10
2007,09,13,13,43,19.10
2007,09,13,13,44,19.10
2007,09,13,13,45,19.10
2007,09,13,13,46,19.10
2007,09,13,13,47,19.10
2007,09,13,13,48,19.10
2007,09,13,13,49,19.20
2007,09,13,13,50,19.20
2007,09,13,13,51,19.30
2007,09,13,13,52,19.40
2007,09,13,13,53,19.40
2007,09,13,13,54,19.40
2007,09,13,13,55,19.30
2007,09,13,13,56,19.30
2007,09,13,13,57,19.30
2007,09,13,13,58,19.30
2007,09,13,13,59,19.30
2007,09,13,14,00,19.30
2007,09,13,14,01,19.40
2007,09,13,14,02,19.40
2007,09,13,14,03,19.40
2007,09,13,14,04,19.40
2007,09,13,14,05,19.40
2007,09,13,14,06,19.40
2007,09,13,14,07,19.30
2007,09,13,14,08,19.20
2007,09,13,14,09,19.30
2007,09,13,14,10,19.30
2007,09,13,14,11,19.30
2007,09,13,14,12,19.30
2007,09,13,14,13,19.30
2007,09,13,14,14,19.30
2007,09,13,14,15,19.30
2007,09,13,14,16,19.30
2007,09,13,14,17,19.30
2007,09,13,14,18,19.20
2007,09,13,14,19,19.20
2007,09,13,14,20,19.20
2007,09,13,14,21,19.30
2007,09,13,14,22,19.20
2007,09,13,14,23,19.20
2007,09,13,14,24,19.20
2007,09,13,14,25,19.20
2007,09,13,14,26,19.20
2007,09,13,14,27,19.30
2007,09,13,14,28,19.30
2007,09,13,14,29,19.30
2007,09,13,14,30,19.30
2007,09,13,14,31,19.30
2007,09,13,14,32,19.30
2007,09,13,14,33,19.40
2007,09,13,14,34,19.50
2007,09,13,14,35,19.60
2007,09,13,14,36,19.70
2007,09,13,14,37,19.80
2007,09,13,14,38,19.90
2007,09,13,14,39,20.00
2007,09,13,14,40,20.00
2007,09,13,14,41,20.00
2007,09,13,14,42,20.10
2007,09,13,14,43,20.10
2007,09,13,14,44,20.20
2007,09,13,14,45,20.20
2007,09,13,14,46,20.20
2007,09,13,14,47,20.20
2007,09,13,14,48,20.20
2007,09,13,14,49,20.20
2007,09,13,14,50,20.30
2007,09,13,14,51,20.40
2007,09,13,14,52,20.40
2007,09,13,14,53,20.40
2007,09,13,14,54,20.40
2007,09,13,14,55,20.40
2007,09,13,14,56,20.40
2007,09,13,14,57,20.40
2007,09,13,14,58,20.40
2007,09,13,14,59,20.40
2007,09,13,15,00,20.40
2007,09,13,15,01,20.40
2007,09,13,15,02,20.40
2007,09,13,15,03,20.50
2007,09,13,15,04,20.50
2007,09,13,15,05,20.50
2007,09,13,15,06,20.50
2007,09,13,15,07,20.50
2007,09,13,15,08,20.60
2007,09,13,15,09,20.60
2007,09,13,15,10,20.60
2007,09,13,15,11,20.60
2007,09,13,15,12,20.60
2007,09,13,15,13,20.70
2007,09,13,15,14,20.70
2007,09,13,15,15,20.70
2007,09,13,15,16,20.60
2007,09,13,15,17,20.60
2007,09,13,15,18,20.60
2007,09,13,15,19,20.60
2007,09,13,15,20,20.70
2007,09,13,15,21,20.70
2007,09,13,15,22,20.70
2007,09,13,15,23,20.80
2007,09,13,15,24,20.80
2007,09,13,15,25,20.80
2007,09,13,15,26,20.80
2007,09,13,15,27,20.80
2007,09,13,15,28,20.80
2007,09,13,15,29,20.80
2007,09,13,15,30,20.80
2007,09,13,15,31,20.80
2007,09,13,15,32,20.90
2007,09,13,15,33,21.00
2007,09,13,15,34,21.10
2007,09,13,15,35,21.10
2007,09,13,15,36,21.10
2007,09,13,15,37,21.00
2007,09,13,15,38,21.00
2007,09,13,15,39,20.90
2007,09,13,15,40,20.90
2007,09,13,15,41,20.90
2007,09,13,15,42,21.00
2007,09,13,15,43,21.00
2007,09,13,15,44,21.10
2007,09,13,15,45,21.10
2007,09,13,15,46,21.20
2007,09,13,15,47,21.30
2007,09,13,15,48,21.30
2007,09,13,15,49,21.30
2007,09,13,15,50,21.40
2007,09,13,15,51,21.40
2007,09,13,15,52,21.30
2007,09,13,15,53,21.30
2007,09,13,15,54,21.30
2007,09,13,15,55,21.40
2007,09,13,15,56,21.40
2007,09,13,15,57,21.40
2007,09,13,15,58,21.40
2007,09,13,15,59,21.50
2007,09,13,16,00,21.40
2007,09,13,16,01,21.40
2007,09,13,16,02,21.40
2007,09,13,16,03,21.40
2007,09,13,16,04,21.30
2007,09,13,16,05,21.30
2007,09,13,16,06,21.20
2007,09,13,16,07,21.20
2007,09,13,16,08,21.30
2007,09,13,16,09,21.30
2007,09,13,16,10,21.40
2007,09,13,16,11,21.40
2007,09,13,16,12,21.40
2007,09,13,16,13,21.40
2007,09,13,16,14,21.30
2007,09,13,16,15,21.30
2007,09,13,16,16,21.30
2007,09,13,16,17,21.30
2007,09,13,16,18,21.30
2007,09,13,16,19,21.30
2007,09,13,16,20,21.40
2007,09,13,16,21,21.40
2007,09,13,16,22,21.40
2007,09,13,16,23,21.40
2007,09,13,16,24,21.40
2007,09,13,16,25,21.50
2007,09,13,16,26,21.50
2007,09,13,16,27,21.60
2007,09,13,16,28,21.70
2007,09,13,16,29,21.70
2007,09,13,16,30,21.80
2007,09,13,16,31,21.80
2007,09,13,16,32,21.80
2007,09,13,16,33,21.80
2007,09,13,16,34,21.80
2007,09,13,16,35,21.80
2007,09,13,16,36,21.80
2007,09,13,16,37,21.80
2007,09,13,16,38,21.80
2007,09,13,16,39,21.80
2007,09,13,16,40,21.80
2007,09,13,16,41,21.80
2007,09,13,16,42,21.70
2007,09,13,16,43,21.70
2007,09,13,16,44,21.70
2007,09,13,16,45,21.60
2007,09,13,16,46,21.60
2007,09,13,16,47,21.60
2007,09,13,16,48,21.60
2007,09,13,16,49,21.60
2007,09,13,16,50,21.70
2007,09,13,16,51,21.70
2007,09,13,16,52,21.70
2007,09,13,16,53,21.70
2007,09,13,16,54,21.80
2007,09,13,16,55,21.80
2007,09,13,16,56,21.80
2007,09,13,16,57,21.80
2007,09,13,16,58,21.90
2007,09,13,16,59,21.90
2007,09,13,17,00,22.00
2007,09,13,17,01,22.00
2007,09,13,17,02,22.10
2007,09,13,17,03,22.10
2007,09,13,17,04,22.10
2007,09,13,17,05,22.10
2007,09,13,17,06,22.20
2007,09,13,17,07,22.20
2007,09,13,17,08,22.20
2007,09,13,17,09,22.30
2007,09,13,17,10,22.30
2007,09,13,17,11,22.30
2007,09,13,17,12,22.30
2007,09,13,17,13,22.30
2007,09,13,17,14,22.30
2007,09,13,17,15,22.40
2007,09,13,17,16,22.40
2007,09,13,17,17,22.40
2007,09,13,17,18,22.50
2007,09,13,17,19,22.50
2007,09,13,17,20,22.60
2007,09,13,17,21,22.60
2007,09,13,17,22,22.60
2007,09,13,17,23,22.70
2007,09,13,17,24,22.70
2007,09,13,17,25,22.70
2007,09,13,17,26,22.70
2007,09,13,17,27,22.60
2007,09,13,17,28,22.60
2007,09,13,17,29,22.60
2007,09,13,17,30,22.60
2007,09,13,17,31,22.60